Regional Weather Roundup
Issued by NWS Cleveland, OH

Home | Current Version | Previous Version | Graphics & Text | Print | Product List | Glossary On
Versions: 1 2 3 4 5 6 7 8 9 10 11 12 13 14 15 16 17 18 19 20 21 22 23 24 25 26 27 28 29 30 31 32 33 34 35 36 37 38 39 40 41 42 43 44 45 46 47 48 49 50
474
ASUS41 KCLE 180300
RWRCLE
OHIO REGIONAL WEATHER ROUNDUP
NATIONAL WEATHER SERVICE WILMINGTON, OH
1000 PM EST FRI NOV 17 2017

NOTE: "FAIR" INDICATES FEW OR NO CLOUDS BELOW 12,000 FEET WITH NO
SIGNIFICANT WEATHER AND/OR OBSTRUCTIONS TO VISIBILITY.

OHZ001>008-015>018-024>027-034-035-043-044-180400-
   NORTHWEST OHIO

CITY           SKY/WX    TMP DP  RH WIND       PRES   REMARKS
DEFIANCE       CLOUDY    45  32  60 S14       29.75F
FINDLAY        MOCLDY    45  31  58 S20       29.79F
TOLEDO EXPRESS CLOUDY    46  34  62 S9        29.77F
TOLEDO EXEC    CLOUDY    45  33  63 S16G25    29.80F
LIMA           MOCLDY    44  33  65 S20G30    29.78F
$$

OHZ009>014-019>023-028>033-038-089-180400-
   NORTHEAST OHIO

CITY           SKY/WX    TMP DP  RH WIND       PRES   REMARKS
CLE-HOPKINS    FAIR      43  30  60 S14G20    29.91F
CLE-LAKEFRONT  FAIR      42  28  57 S21       29.88F
CUY CO. ARPT   MOCLDY    43  30  61 S15G24    29.90F
LORAIN-ELYRIA  FAIR      41  27  57 S14       29.87F
ASHTABULA      FAIR      37  29  72 S14       29.93F
AKRON-CANTON   CLOUDY    38  28  67 S12       29.92F
WOOSTER        NOT AVBL
MANSFIELD      FAIR      42  30  62 S18       29.87F
YOUNGSTOWN     CLOUDY    37  27  67 SE9       29.93F
$$

OHZ042-051>053-060>062-070>072-077>081-180400-
  SOUTHWEST OHIO

CITY           SKY/WX    TMP DP  RH WIND       PRES   REMARKS
CINC-COVINGTON CLOUDY    47  36  65 S12       29.85F
CINC-LUNKEN    MOCLDY    45  37  73 SW5       29.88F
HAMILTON       CLOUDY    48  34  58 VRB3      29.86F
DAYTON         NOT AVBL
WRIGHT-PAT AFB NOT AVBL
DAYTON GENERAL CLOUDY    47  31  53 S15       29.84F
WILMINGTON     FAIR      44  33  65 SE9       29.87F
$$

OHZ036-037-039>041-045>050-054>059-063>069-073>076-082>088-180400-
  CENTRAL AND SOUTHEAST OHIO

CITY           SKY/WX    TMP DP  RH WIND       PRES   REMARKS
COLUMBUS       CLOUDY    43  31  62 SE6       29.90F
OSU AIRPORT    FAIR      43  32  65 S13       29.89F
BOLTON FIELD   NOT AVBL
RICKENBACK AFB NOT AVBL
NEWARK         FAIR      41  29  62 S3        29.91F
MARION         FAIR      42  31  64 S15       29.86F
LANCASTER      FAIR      43  31  62 SE9       29.91F
ZANESVILLE     FAIR      39  29  67 SE7       29.94F
NEW PHILLY     FAIR      38  29  70 CALM      29.95F
$$




USA.gov is the U.S. government's official web portal to all federal, state and local government web resources and services.